Regional Weather Roundup
Issued by NWS State College, PA

Home | Current Version | Previous Version | Text Only | Print | Product List | Glossary Off
Versions: 1 2 3 4 5 6 7 8 9 10 11 12 13 14 15 16 17 18 19 20 21 22 23 24 25 26 27 28 29 30 31 32 33 34 35 36 37 38 39 40 41 42 43 44 45 46 47 48 49 50

000
ASUS41 KCTP 171910
RWRCTP

REGIONAL WEATHER ROUNDUP
NATIONAL WEATHER SERVICE STATE COLLEGE PA
200 PM EST SUN DEC 17 2017

Note: "fair" indicates few or no clouds below 12,000 feet with no
significant weather and/or obstructions to visibility.

* = STATION THAT DOES NOT REPORT PRECIPITATION /E.G. RAIN...SNOW...ETC/
    THUNDER OR FOG.

PAZ002>004-007>009-013>016-020>023-029>032-172000-
WESTERN PENNSYLVANIA

CITY           SKY/WX    TMP DP  RH WIND       PRES   REMARKS
ERIE           CLOUDY    30  25  81 NE8       30.14F HAZE
MEADVILLE      MOSUNNY   30  28  92 E5        30.10F
FRANKLIN*      MOSUNNY   32  30  92 E3        30.10F
NEW CASTLE     FAIR      39  29  67 S5        30.11F
BEAVER COUNTY  MOSUNNY   39  28  65 S5        30.10
BUTLER*        MOSUNNY   38  28  67 SE3       30.11F
PITTSBURGH INT CLOUDY    42  29  59 S3        30.10F
PITTSBURGH     CLOUDY    39  27  62 SE5       30.10F
INDIANA*       SUNNY     39  30  70 CALM      30.15F
LATROBE        CLOUDY    41  30  65 SW7       30.15F
WASHINGTON CO* CLOUDY    42  29  59 S7        30.13F
$$

PAZ004>006-010>012-017>019-024>028-033>037-041-042-045-046-049>053-172000-
CENTRAL PENNSYLVANIA

CITY           SKY/WX    TMP DP  RH WIND       PRES   REMARKS
BRADFORD       CLOUDY    31  29  92 S3        30.09F FOG
DUBOIS         CLOUDY    32  28  85 CALM      30.11F FOG
CLEARFIELD     CLOUDY    33  27  78 CALM      30.13F
JOHNSTOWN      CLOUDY    38  27  64 SW7       30.09F
ALTOONA        MOSUNNY   42  29  59 S6        30.13F
STATE COLLEGE  SUNNY     34  28  80 CALM      30.15F
WILLIAMSPORT   CLOUDY    37  27  67 CALM      30.19F
SELINSGROVE    CLOUDY    36  28  73 CALM      30.20F
FT INDIANTOWN  CLOUDY    37  29  71 E3        30.20F
CAPITAL CITY   CLOUDY    42  27  55 NE3       30.20F
HARRISBURG     PTSUNNY   41  29  62 SW3       30.19F
YORK           SUNNY     45  29  53 CALM      30.18F
$$

PAZ038>040-043-044-047-048-054-055-060>062-067>071-172000-
EASTERN PENNSYLVANIA

CITY           SKY/WX    TMP DP  RH WIND       PRES   REMARKS
SCRANTON       CLOUDY    32  23  69 N3        30.18F
MOUNT POCONO   CLOUDY    31  25  78 SE6       30.12F
ALLENTOWN      MOSUNNY   36  24  62 N5        30.21F
QUAKERTOWN*    CLOUDY    37  25  60 CALM      30.21F
READING        CLOUDY    39  29  67 CALM      30.20F
LANCASTER      CLOUDY    42  31  64 CALM      30.20F
COATESVILLE    CLOUDY    41  28  60 CALM      30.19F
POTTSTOWN      CLOUDY    38  26  62 CALM      30.22F
BLUE BELL      CLOUDY    39  28  65 CALM      30.23S
DOYLESTOWN     MOSUNNY   38  25  59 CALM      30.20F
WILLOW GROVE   NOT AVBL
NORTH PHILA    PTSUNNY   43  29  57 CALM      30.23F
PHILADELPHIA   CLOUDY    43  27  53 CALM      30.22F
$$




USA.gov is the U.S. government's official web portal to all federal, state and local government web resources and services.